Tracking 31013 objects as of 10-Jul-2025
HD Live streaming from Space Station
objects crossing your sky now

CZ-3B R/B

Track CZ-3B R/B now!
10-day predictions


NORAD ID: 44077
Int'l Code: 2019-017B
Perigee: 197.0 km
Apogee: 16,650.0 km
Inclination: 26.8 °
Period: 298.5 minutes
Semi major axis: 14794 km
RCS: Unknown
Launch date: March 31, 2019
Source: People's Republic of China (PRC)
Launch site: Xichang Space Center, China (XSC)

Note: This is a ROCKET BODY
Your satellite tracking list
Your tracking list is empty




NASA's NSSDC Master Catalog

Two Line Element Set (TLE):
1 44077U 19017B   25191.43967146  .00047272 -65559-6  85761-3 0  9997
2 44077  26.8009 190.5481 5560489 207.7849 106.0565  4.82450550 72747
Source of the keplerian elements: AFSPC